sat.trackr.live / text

‹ back to catalog

STARLINK-35758

NORAD 66229 · 2025-244Z

PAYLOAD ACTIVE UNKNOWN

§ Identity

Operator
Country
US
Launch date
2025-10-28
Launch site
AFWTR
Launch vehicle
Mass (kg)
RCS (m²)

Purposes: comms

External: N2YO · Heavens-Above · Gunter

§ Orbital elements

Epoch: 2026-09-20T16:25:38.723808Z

Period
93.85 min
Inclination
53.1505°
Eccentricity
0.0001683
Mean motion
15.34421746 rev/d
Perigee alt
461.5 km
Apogee alt
463.8 km
Semi-major
6,840.8 km
B*
8.8757e-4
RAAN
40.6605°
Arg perigee
106.7734°
Mean anomaly
253.3453°
Rev number
5,156

§ Raw data

STARLINK-357581 66229U 25244Z   26263.68447597  .00029752  00000+0  88757-3 0  99932 66229  53.1505  40.6605 0001683 106.7734 253.3453 15.34421746 51562

JSON: /api/v1/satellites/66229 · /tle

For live sub-satellite position, see the globe view (requires WebGL).

§ Visibility from observer

Set your observer location to see the next 7 days of passes ≥ 10°. The values pass through the URL so the page stays shareable.

No JS? Fill the form by hand. The geolocation button needs JavaScript.